THOR AGENA D R/B, 2825

Orbit data source: Space-Track

THOR AGENA D R/B, 2825 is space debris in LEO originally from a launch on Wed, 31 May 1967 UTC launched from the Air Force Western Test Range (AFWTR). Debris objects in space refer to the collection of defunct objects orbiting the Earth. Examples of debris include non-operational satellites, rocket bodies, and fragments generated from explosions, collisions, or faulty payload assembly.

Loading next visibility...
Identifier
2825, 1967-053B
Orbit
LEO
Last TLE update
12 hours ago
Origin
Manufacturer
LMSC
Mission
Spacecraft
Bus & Motor
AGENA D, Unknown motor
Mass
600 kg wet, 600 kg dry
Launch date (UTC)
1967-05-31 (58 years ago)
Launch vehicle
Unknown
Launch site
Air Force Western Test Range (AFWTR)
Object type
Payload
Rocket body
Debris
Shape & HBR
Cyl + 1 Nozzle, 6.3 m
Radar Cross Section
8.306 m², Large (>1 m²)

Expand to show TLE details & history

TLE from 12 hours ago
0 THOR AGENA D R/B
1 02825U 67053B   25181.91021745  .00000032  00000-0  60433-4 0  9999
2 02825  69.9718 107.6385 0009694 269.9350  90.0645 13.97638710 43018
Epoch: 2025-06-30T21:50Z
TLE epoch observation values (Epoch: 2025-06-30T21:50:42.787Z)
Latitude
-0.00008°
Longitude
-139.25306°
Altitude
904.31 km
Speed
7.4 km/s
True Right ascension
07h 10m 33s
True Declination
0° 00' 00"
Sunlit
Object was in daylight at epoch
Visualization orbit readout
Latitude
-70.03248°
Longitude
133.28725°
Altitude
920.48 km
Speed
7.395 km/s
Apparent Right ascension
07h 02m 43s
Apparent Declination
-67° 58' 11"
Sunlit
Object is in daylight
Visualization observer readout
Local Sidereal Time
21:04:59
Azimuth
159.26° S
Elevation
-57.408°
Doppler factor
1
Orbital elements
Apogee altitude
907.083 km
Perigee altitude
892.972 km
Semi-major axis
7,278.165 km
Eccentricity
0.00097
Inclination
69.9718°
RAAN
107.6385°
Arg. of periapsis
269.935°
True anomaly
Unknown
Mean anomaly
90.0645°
Eccentric anomaly
Unknown
Mean motion
3.49551 °/min
Orbital period
102.99 mins
BSTAR
0.000060433
Loading maneuver chart data...
Loading SW <> Apogee altitude chart data...
Loading historical data...
Loading historical data...
Loading historical data...
Loading historical data...
Loading historical data...
Loading historical data...
Loading historical data...

THOR AGENA D R/B Visibility forecast

Observer location: undefined°, undefined°

Span
Click to sort rows by Start time (UTC) header in descending order
Start Az.
Max El. time (UTC)
Max El. Az.
Max El.
End time (UTC)
End Az.
11 mins2025-07-01 20:16:42.162Z195.926° SSW2025-07-01 20:22:42.162Z95.064° ESE43.969°2025-07-01 20:27:42.162Z28.596° NE
7 mins2025-07-01 22:05:42.162Z276.419° WNW2025-07-01 22:08:42.162Z311.266° NW18.026°2025-07-01 22:12:42.162Z354.353° N
9 mins2025-07-02 05:19:42.162Z354.524° N2025-07-02 05:23:42.162Z54.032° ENE34.349°2025-07-02 05:28:42.162Z126.859° SE
8 mins2025-07-02 07:05:42.162Z302.751° NW2025-07-02 07:08:42.162Z263.93° W25.144°2025-07-02 07:13:42.162Z201.837° SSW
|